period_start,C,m1,H,J0,J1,J2,J3,J4,J5,JA,JB,JC,JD,JJ,JK,JN,#
2018-07-04 00:04:14,0.27,0.44,0.00,26.35,30.42,33.29,13.69,48.31,1008.09,2014.00,3175.94,2938.17,3349.49,600.16,584.62,18.01,0000 0000 0000 0000 000000
2018-07-04 00:09:16,0.48,0.47,0.00,26.35,30.42,33.30,13.67,48.30,1007.90,2014.00,3166.14,2931.90,3341.44,599.83,584.13,18.06,0000 0000 0000 0000 000000
2018-07-04 00:14:17,0.93,0.50,0.00,26.36,30.42,33.28,13.65,48.23,1007.85,2014.00,3150.06,2921.43,3328.15,600.05,584.26,18.11,0000 0000 0000 0000 000000
2018-07-04 00:19:18,1.15,0.56,0.00,26.37,30.42,33.28,13.72,48.29,1007.84,2014.00,3127.14,2906.34,3308.99,599.82,583.99,18.16,0000 0000 0000 0000 000000
2018-07-04 00:24:19,1.48,0.63,0.00,26.37,30.42,33.27,13.74,48.43,1007.84,2014.00,3098.82,2887.69,3285.22,600.15,584.40,18.21,0000 0000 0000 0000 000000
2018-07-04 00:29:21,1.60,0.70,0.40,26.38,30.42,33.29,13.71,48.95,1007.84,2014.00,3067.15,2866.78,3258.70,600.12,584.34,18.26,0000 0000 0000 0000 000000
2018-07-04 00:34:22,1.65,0.79,1.00,26.37,30.42,33.30,13.65,48.98,1007.83,2014.00,3035.32,2845.51,3231.91,599.47,583.95,18.31,0000 0000 0000 0000 000000
2018-07-04 00:39:23,1.73,0.87,1.00,26.38,30.42,33.29,13.71,48.73,1007.83,2013.99,3001.96,2823.11,3203.74,599.85,583.98,18.36,0000 0000 0000 0000 000000
2018-07-04 00:44:24,1.86,0.96,1.00,26.39,30.44,33.27,13.70,48.70,1007.82,2013.98,2967.35,2799.80,3174.42,599.81,583.96,18.41,0000 0000 0000 0000 000000
2018-07-04 00:49:26,1.87,1.05,1.00,26.40,30.45,33.27,13.67,48.79,1007.80,2013.96,2932.61,2776.21,3144.91,599.95,584.18,18.46,0000 0000 0000 0000 000000
2018-07-04 00:54:27,2.02,1.15,1.00,26.40,30.45,33.28,13.70,48.85,1007.81,2013.97,2895.72,2751.20,3113.89,599.99,584.17,18.51,0000 0000 0000 0000 000000
2018-07-04 00:59:28,2.09,1.25,1.43,26.41,30.45,33.31,13.76,49.08,1007.66,2013.92,2858.71,2725.85,3082.40,600.45,584.50,18.56,0000 0000 0000 0000 000000
2018-07-04 01:04:30,2.38,1.37,2.00,26.41,30.45,33.30,13.67,49.24,1007.48,2013.89,2817.66,2697.56,3047.62,599.22,583.19,18.61,0000 0000 0000 0000 000000
2018-07-04 01:09:31,2.58,1.50,2.00,26.42,30.47,33.32,13.69,49.42,1007.37,2013.79,2773.81,2667.12,3010.20,599.90,583.77,18.66,0000 0000 0000 0000 000000
2018-07-04 01:14:32,2.62,1.63,2.00,26.44,30.47,33.32,13.66,49.60,1007.35,2013.65,2729.76,2636.20,2972.50,599.78,583.75,18.71,0000 0000 0000 0000 000000
2018-07-04 01:19:34,2.59,1.76,2.00,26.45,30.47,33.29,13.74,49.45,1007.36,2013.20,2686.38,2605.91,2935.39,599.98,583.80,18.76,0000 0000 0000 0000 000000
2018-07-04 01:24:35,2.63,1.89,2.00,26.45,30.48,33.25,13.74,49.67,1007.37,2013.06,2643.77,2575.91,2898.91,600.79,584.52,18.81,0000 0000 0000 0000 000000
2018-07-04 01:29:36,2.58,2.02,2.43,26.48,30.50,33.29,13.64,49.84,1007.34,2013.01,2602.79,2547.13,2863.87,599.54,583.29,18.86,0000 0000 0000 0000 000000
2018-07-04 01:34:38,2.55,2.15,3.00,26.51,30.50,33.24,13.67,49.88,1007.34,2013.00,2563.39,2519.26,2830.04,599.95,583.66,18.91,0000 0000 0000 0000 000000
2018-07-04 01:39:39,2.50,2.27,3.00,26.54,30.51,33.17,13.75,50.13,1007.34,2013.00,2525.45,2492.42,2797.56,600.18,583.74,18.97,0000 0000 0000 0000 000000
2018-07-04 01:44:41,2.49,2.40,3.00,26.55,30.52,33.20,13.71,50.16,1007.34,2013.00,2488.76,2466.35,2766.06,600.26,583.77,19.02,0000 0000 0000 0000 000000
2018-07-04 01:49:42,2.49,2.53,3.00,26.57,30.53,33.20,13.76,50.36,1007.35,2013.00,2452.91,2440.69,2735.36,600.11,583.68,19.07,0000 0000 0000 0000 000000
2018-07-04 01:54:43,2.46,2.65,3.00,26.59,30.55,33.18,13.73,50.53,1007.35,2012.98,2418.05,2415.68,2705.27,599.92,583.46,19.12,0000 0000 0000 0000 000000
2018-07-04 01:59:44,2.43,2.77,3.00,26.61,30.56,33.23,13.64,50.52,1007.35,2012.87,2383.99,2391.34,2676.17,600.02,583.66,19.17,0000 0000 0000 0000 000000
2018-07-04 02:04:45,2.39,2.89,3.00,26.62,30.57,33.26,13.74,50.60,1007.37,2012.65,2351.07,2367.68,2647.79,600.64,584.01,19.22,0000 0000 0000 0000 000000
2018-07-04 02:09:47,2.37,3.01,3.00,26.63,30.60,33.30,13.69,50.84,1007.37,2012.30,2318.93,2344.64,2620.27,599.94,583.40,19.27,0000 0000 0000 0000 000000
2018-07-04 02:14:48,2.36,3.13,3.00,26.65,30.61,33.32,13.74,50.97,1007.35,2012.08,2287.83,2322.12,2593.52,599.79,583.24,19.32,0000 0000 0000 0000 000000
2018-07-04 02:19:49,2.32,3.25,3.00,26.66,30.62,33.31,13.67,51.12,1007.36,2012.02,2257.73,2300.45,2567.67,599.82,583.25,19.37,0000 0000 0000 0000 000000
2018-07-04 02:24:51,2.31,3.37,3.00,26.69,30.64,33.32,13.68,51.14,1007.37,2012.00,2228.60,2279.34,2542.70,600.11,583.45,19.42,0000 0000 0000 0000 000000
2018-07-04 02:29:52,2.31,3.48,2.50,26.73,30.65,33.35,13.69,51.25,1007.35,2012.00,2199.98,2258.57,2518.10,600.21,583.48,19.47,0000 0000 0000 0000 000000
2018-07-04 02:34:53,2.26,3.60,2.00,26.76,30.67,33.32,13.74,51.52,1007.35,2011.99,2172.30,2238.59,2494.43,600.10,583.30,19.52,0000 0000 0000 0000 000000
2018-07-04 02:39:55,2.30,3.71,2.00,26.77,30.68,33.32,13.70,51.54,1007.34,2011.98,2144.85,2218.73,2470.91,599.95,583.11,19.57,0000 0000 0000 0000 000000
2018-07-04 02:44:56,2.38,3.83,2.00,26.81,30.70,33.32,13.70,51.66,1007.34,2011.93,2117.70,2198.40,2447.05,599.98,583.08,19.62,0000 0000 0000 0000 000000
2018-07-04 02:49:57,2.24,3.94,2.00,26.83,30.72,33.31,13.81,51.80,1007.34,2011.73,2091.59,2178.85,2424.22,600.51,583.39,19.67,0000 0000 0000 0000 000000
2018-07-04 02:54:59,2.16,4.05,2.00,26.87,30.73,33.25,13.67,51.82,1007.34,2011.19,2066.41,2160.40,2402.40,600.16,583.14,19.72,0000 0000 0000 0000 000000
2018-07-04 03:00:00,2.20,4.17,2.00,26.89,30.75,33.25,13.71,51.88,1007.34,2011.05,2041.96,2142.26,2381.09,599.98,582.83,19.77,0000 0000 0000 0000 000000
2018-07-04 03:05:01,2.19,4.28,2.00,26.92,30.77,33.26,13.66,51.96,1007.34,2011.01,2018.02,2124.60,2360.56,599.94,582.81,19.82,0000 0000 0000 0000 000000
2018-07-04 03:10:02,2.19,4.38,2.00,26.95,30.80,33.26,13.63,52.23,1007.31,2011.00,1994.47,2107.49,2340.36,600.02,582.83,19.87,0000 0000 0000 0000 000000
2018-07-04 03:15:03,2.17,4.49,2.00,26.98,30.82,33.28,13.67,52.17,1007.26,2011.00,1971.65,2090.62,2320.51,599.83,582.59,19.92,0000 0000 0000 0000 000000
2018-07-04 03:20:05,2.19,4.60,2.00,27.02,30.84,33.28,13.71,52.36,1007.25,2010.97,1948.99,2073.72,2300.88,599.88,582.48,19.97,0000 0000 0000 0000 000000
2018-07-04 03:25:06,2.19,4.71,2.00,27.07,30.86,33.28,13.71,52.56,1007.26,2010.83,1926.35,2056.96,2281.36,600.20,582.67,20.02,0000 0000 0000 0000 000000
2018-07-04 03:30:08,2.16,4.82,2.00,27.11,30.89,33.30,13.67,52.63,1007.32,2010.58,1904.28,2040.68,2262.08,599.61,582.11,20.07,0000 0000 0000 0000 000000
2018-07-04 03:35:09,2.14,4.93,2.00,27.14,30.91,33.34,13.62,52.75,1007.34,2010.21,1882.72,2024.49,2243.21,600.02,582.50,20.12,0000 0000 0000 0000 000000
2018-07-04 03:40:10,2.22,5.04,2.00,27.19,30.94,33.36,13.71,52.88,1007.34,2010.03,1861.11,2008.29,2224.57,599.88,582.31,20.17,0000 0000 0000 0000 000000
2018-07-04 03:45:12,2.28,5.15,2.00,27.24,30.97,33.37,13.70,52.96,1007.34,2010.00,1839.37,1992.09,2205.70,600.21,582.48,20.22,0000 0000 0000 0000 000000
2018-07-04 03:50:13,2.47,5.28,2.00,27.28,31.00,33.40,13.64,53.07,1007.34,2009.99,1816.50,1975.26,2185.96,600.08,582.30,20.27,0000 0000 0000 0000 000000
2018-07-04 03:55:14,2.53,5.40,2.00,27.34,31.03,33.42,13.71,53.25,1007.34,2009.94,1792.99,1957.92,2165.96,599.98,582.05,20.32,0000 0000 0000 0000 000000
2018-07-04 04:00:16,2.62,5.53,2.00,27.40,31.06,33.47,13.63,53.43,1007.34,2009.54,1768.45,1940.15,2145.32,599.96,581.94,20.37,0000 0000 0000 0000 000000
2018-07-04 04:05:17,2.68,5.66,2.00,27.45,31.10,33.50,13.70,53.58,1007.34,2009.02,1743.59,1922.29,2124.55,600.19,582.01,20.42,0000 0000 0000 0000 000000
2018-07-04 04:10:18,2.75,5.80,2.00,27.51,31.14,33.54,13.68,53.73,1007.34,2009.00,1719.06,1904.65,2104.17,599.95,581.74,20.47,0000 0000 0000 0000 000000
2018-07-04 04:15:19,2.80,5.94,2.00,27.56,31.17,33.57,13.69,53.88,1007.34,2008.98,1694.57,1887.02,2083.72,599.99,581.68,20.52,0000 0000 0000 0000 000000
2018-07-04 04:20:20,2.80,6.08,2.00,27.62,31.21,33.62,13.70,54.07,1007.34,2008.83,1670.46,1869.41,2063.39,600.05,581.50,20.57,0000 0000 0000 0000 000000
2018-07-04 04:25:21,2.74,6.21,2.00,27.67,31.25,33.65,13.69,54.25,1007.34,2008.19,1646.36,1852.22,2043.53,600.08,581.49,20.62,0000 0000 0000 0000 000000
2018-07-04 04:30:23,2.86,6.36,2.60,27.72,31.29,33.70,13.60,54.48,1007.34,2008.01,1622.59,1835.14,2023.85,599.74,581.15,20.67,0000 0000 0000 0000 000000
2018-07-04 04:35:24,2.89,6.50,3.00,27.79,31.33,33.74,13.64,54.78,1007.34,2008.00,1599.12,1818.09,2004.26,599.84,581.01,20.72,0000 0000 0000 0000 000000
2018-07-04 04:40:26,2.89,6.65,3.00,27.84,31.36,33.78,13.64,54.89,1007.35,2007.96,1575.91,1801.34,1985.10,599.87,580.97,20.77,0000 0000 0000 0000 000000
2018-07-04 04:45:27,2.82,6.79,3.00,27.90,31.40,33.84,13.72,55.16,1007.36,2007.62,1553.08,1785.07,1966.33,600.46,581.45,20.82,0000 0000 0000 0000 000000
2018-07-04 04:50:28,2.82,6.93,3.00,27.95,31.44,33.89,13.77,55.41,1007.49,2007.05,1531.01,1769.02,1947.78,600.42,581.38,20.87,0000 0000 0000 0000 000000
2018-07-04 04:55:29,2.92,7.08,3.00,28.00,31.49,33.95,13.70,55.74,1007.73,2007.00,1509.13,1753.05,1929.46,599.47,580.46,20.92,0000 0000 0000 0000 000000
2018-07-04 05:00:30,2.94,7.22,3.00,28.04,31.53,33.99,13.73,55.85,1007.70,2006.98,1487.28,1737.23,1911.40,600.28,581.19,20.97,0000 0000 0000 0000 000000
2018-07-04 05:05:31,2.96,7.37,3.00,28.10,31.58,34.02,13.69,56.19,1007.71,2006.70,1465.42,1721.65,1893.31,600.15,580.96,21.02,0000 0000 0000 0000 000000
2018-07-04 05:10:33,3.20,7.52,3.00,28.14,31.62,34.07,13.73,56.43,1007.75,2006.12,1442.61,1705.11,1874.29,600.05,580.80,21.07,0000 0000 0000 0000 000000
2018-07-04 05:15:34,3.43,7.70,3.00,28.19,31.67,34.15,13.74,56.72,1007.79,2006.00,1418.62,1687.91,1854.70,600.19,580.84,21.12,0000 0000 0000 0000 000000
2018-07-04 05:20:35,3.48,7.87,3.00,28.25,31.72,34.18,13.68,56.84,1007.81,2005.98,1394.72,1670.76,1835.14,599.88,580.47,21.17,0000 0000 0000 0000 000000
2018-07-04 05:25:36,3.48,8.05,3.00,28.31,31.76,34.20,13.74,57.24,1007.83,2005.41,1370.69,1653.68,1815.44,600.13,580.59,21.22,0000 0000 0000 0000 000000
2018-07-04 05:30:38,3.50,8.22,3.00,28.37,31.81,34.26,13.72,57.39,1007.83,2005.03,1347.26,1636.84,1796.25,600.30,580.66,21.27,0000 0000 0000 0000 000000
2018-07-04 05:35:39,3.53,8.40,3.00,28.42,31.86,34.31,13.68,57.92,1007.82,2004.99,1324.59,1620.51,1777.67,599.91,580.29,21.32,0000 0000 0000 0000 000000
2018-07-04 05:40:40,3.38,8.57,3.00,28.49,31.91,34.37,13.66,58.12,1007.82,2004.77,1302.68,1604.94,1759.82,599.79,579.95,21.37,0000 0000 0000 0000 000000
2018-07-04 05:45:42,3.22,8.73,3.00,28.56,31.96,34.41,13.69,58.52,1007.81,2004.13,1282.02,1590.29,1742.91,599.84,579.84,21.42,0000 0000 0000 0000 000000
2018-07-04 05:50:43,3.23,8.89,3.00,28.54,32.01,34.51,13.72,58.69,1007.81,2004.00,1262.30,1576.22,1726.94,600.03,580.03,21.47,0000 0000 0000 0000 000000
2018-07-04 05:55:44,3.19,9.06,3.00,28.48,32.05,34.54,13.75,58.92,1007.82,2003.99,1243.28,1562.49,1711.42,600.08,580.22,21.52,0000 0000 0000 0000 000000
2018-07-04 06:00:46,3.19,9.22,3.00,28.40,32.09,34.61,13.77,59.09,1007.81,2003.70,1224.23,1549.05,1696.16,599.95,580.30,21.57,0000 0000 0000 0000 000000
2018-07-04 06:05:47,3.19,9.38,3.00,28.24,32.11,34.91,13.77,59.64,1007.78,2003.11,1205.42,1535.72,1680.84,600.66,581.21,21.62,0000 0000 0000 0000 000000
2018-07-04 06:10:48,3.33,9.54,3.00,28.10,32.12,35.12,13.79,60.42,1007.82,2003.00,1186.40,1522.42,1665.63,600.03,580.89,21.67,0000 0000 0000 0000 000000
2018-07-04 06:15:50,3.33,9.71,3.00,27.99,32.12,35.09,13.75,60.60,1007.83,2003.00,1167.78,1509.33,1650.90,599.81,580.84,21.72,0000 0000 0000 0000 000000
2018-07-04 06:20:51,3.23,9.87,3.00,27.90,32.12,35.03,13.75,61.13,1007.83,2003.00,1150.12,1496.70,1636.60,599.44,580.77,21.77,0000 0000 0000 0000 000000
2018-07-04 06:25:52,3.16,10.03,3.00,27.83,32.11,34.95,13.78,61.31,1007.83,2003.00,1133.16,1484.69,1622.90,599.93,581.33,21.82,0000 0000 0000 0000 000000
2018-07-04 06:30:53,3.14,10.19,3.00,27.77,32.10,34.87,13.80,61.38,1007.83,2003.01,1116.60,1473.08,1609.63,599.95,581.41,21.87,0000 0000 0000 0000 000000
2018-07-04 06:35:55,3.13,10.35,3.00,27.73,32.07,34.77,13.82,61.62,1007.83,2003.03,1100.41,1461.60,1596.66,600.08,581.63,21.92,0000 0000 0000 0000 000000
2018-07-04 06:40:56,3.08,10.50,3.00,27.71,32.04,34.69,13.83,61.95,1007.83,2003.02,1084.89,1450.27,1583.98,600.19,581.82,21.97,0000 0000 0000 0000 000000
2018-07-04 06:45:58,3.09,10.66,3.00,27.70,32.01,34.60,13.87,62.04,1007.83,2003.15,1069.82,1439.16,1571.42,599.83,581.49,22.02,0000 0000 0000 0000 000000
2018-07-04 06:50:59,3.14,10.82,3.00,27.70,31.98,34.52,13.85,62.55,1007.84,2003.59,1055.26,1428.21,1559.02,600.33,581.99,22.07,0000 0000 0000 0000 000000
2018-07-04 06:56:00,3.04,10.97,3.00,27.72,31.95,34.45,13.95,62.92,1007.87,2003.81,1041.13,1417.46,1546.89,600.55,582.07,22.12,0000 0000 0000 0000 000000
2018-07-04 07:01:02,2.96,11.13,3.00,27.74,31.92,34.40,13.83,62.87,1007.97,2003.93,1027.42,1407.07,1535.27,599.61,581.27,22.17,0000 0000 0000 0000 000000
2018-07-04 07:06:03,2.97,11.27,3.00,27.77,31.89,34.38,13.87,63.11,1008.06,2003.98,1014.11,1396.98,1523.93,600.29,581.96,22.22,0000 0000 0000 0000 000000
2018-07-04 07:11:04,2.91,11.42,3.00,27.80,31.86,34.36,13.88,63.52,1008.21,2003.99,1001.10,1387.05,1512.76,600.22,581.94,22.27,0000 0000 0000 0000 000000
2018-07-04 07:16:06,2.92,11.57,3.00,27.83,31.84,34.35,13.86,63.86,1008.25,2003.99,988.24,1377.40,1501.87,600.30,581.91,22.32,0000 0000 0000 0000 000000
2018-07-04 07:21:07,2.87,11.71,3.00,27.87,31.82,34.32,13.92,64.02,1008.30,2003.99,975.81,1367.85,1491.14,599.80,581.39,22.37,0000 0000 0000 0000 000000
2018-07-04 07:26:09,2.85,11.86,3.00,27.91,31.80,34.30,13.91,64.26,1008.31,2003.99,963.96,1358.46,1480.62,600.14,581.54,22.42,0000 0000 0000 0000 000000
2018-07-04 07:31:10,2.81,12.00,3.00,27.96,31.80,34.28,13.92,64.55,1008.31,2003.99,952.50,1349.18,1470.31,600.47,581.87,22.47,0000 0000 0000 0000 000000
2018-07-04 07:36:11,2.80,12.14,3.00,28.01,31.77,34.27,13.83,64.67,1008.31,2003.99,941.23,1340.12,1460.03,599.80,581.16,22.52,0000 0000 0000 0000 000000
2018-07-04 07:41:12,2.72,12.28,3.00,28.06,31.77,34.25,13.83,65.38,1008.31,2004.00,930.12,1331.71,1450.50,600.40,581.64,22.57,0000 0000 0000 0000 000000
2018-07-04 07:46:13,2.71,12.41,3.00,28.10,31.77,34.19,13.89,65.75,1008.31,2004.00,919.00,1323.70,1441.51,600.04,581.14,22.63,0000 0000 0000 0000 000000
2018-07-04 07:51:15,2.69,12.55,3.00,28.15,31.77,34.12,13.82,65.89,1008.31,2004.00,908.16,1315.76,1432.51,600.12,581.16,22.68,0000 0000 0000 0000 000000
2018-07-04 07:56:16,2.66,12.68,3.00,28.20,31.77,34.09,13.81,66.08,1008.31,2004.00,897.74,1307.75,1423.53,599.77,580.76,22.73,0000 0000 0000 0000 000000
2018-07-04 08:01:17,2.72,12.82,3.00,28.25,31.77,34.07,13.85,66.32,1008.31,2004.01,887.73,1299.60,1414.39,600.13,580.95,22.78,0000 0000 0000 0000 000000
2018-07-04 08:06:18,2.67,12.95,3.00,28.31,31.77,34.08,13.83,66.53,1008.31,2004.00,877.69,1291.65,1405.47,599.81,580.58,22.83,0000 0000 0000 0000 000000
2018-07-04 08:11:20,2.63,13.08,3.00,28.37,31.79,34.08,13.91,66.72,1008.31,2004.00,867.80,1284.07,1397.03,599.91,580.44,22.88,0000 0000 0000 0000 000000
2018-07-04 08:16:21,2.59,13.21,3.00,28.43,31.80,34.10,13.86,66.84,1008.31,2004.00,857.94,1277.08,1389.02,600.16,580.71,22.93,0000 0000 0000 0000 000000
2018-07-04 08:21:22,2.77,13.35,3.00,28.49,31.82,34.12,13.74,67.28,1008.33,2004.00,848.12,1269.39,1380.45,599.40,579.94,22.98,0000 0000 0000 0000 000000
2018-07-04 08:26:24,2.79,13.49,3.00,28.55,31.83,34.14,13.84,67.51,1008.37,2003.99,838.29,1261.58,1371.62,599.91,580.29,23.03,0000 0000 0000 0000 000000
2018-07-04 08:31:25,2.78,13.63,3.00,28.61,31.86,34.16,13.82,67.79,1008.61,2003.97,828.81,1253.65,1362.78,600.02,580.43,23.08,0000 0000 0000 0000 000000
2018-07-04 08:36:27,2.68,13.77,3.00,28.67,31.88,34.18,13.80,67.72,1008.76,2003.92,819.37,1246.38,1354.68,599.93,580.27,23.13,0000 0000 0000 0000 000000
2018-07-04 08:41:28,2.79,13.90,3.00,28.73,31.91,34.21,13.84,68.29,1008.80,2003.74,809.61,1239.13,1346.57,599.98,580.22,23.18,0000 0000 0000 0000 000000
2018-07-04 08:46:29,3.72,14.07,3.00,28.78,31.93,34.24,13.85,68.70,1008.82,2003.19,796.91,1229.96,1336.49,599.90,579.89,23.23,0000 0000 0000 0000 000000
2018-07-04 08:51:31,3.65,14.26,3.00,28.83,31.96,34.27,13.80,69.09,1008.93,2003.02,784.00,1220.83,1326.31,599.79,579.98,23.28,0000 0000 0000 0000 000000
2018-07-04 08:56:32,3.56,14.44,3.00,28.89,32.00,34.31,13.83,69.57,1009.12,2003.00,771.28,1212.88,1317.21,599.78,579.90,23.33,0000 0000 0000 0000 000000
2018-07-04 09:01:33,3.42,14.62,3.00,28.95,32.02,34.34,13.88,70.28,1009.26,2003.00,759.59,1204.90,1308.15,600.03,580.11,23.38,0000 0000 0000 0000 000000
2018-07-04 09:06:35,3.33,14.78,3.00,29.00,32.06,34.37,13.81,70.73,1009.28,2002.98,748.83,1197.00,1299.29,599.80,579.75,23.43,0000 0000 0000 0000 000000
2018-07-04 09:11:36,3.16,14.95,3.00,29.05,32.09,34.40,13.88,70.88,1009.29,2002.91,738.93,1189.03,1290.42,600.17,580.07,23.48,0000 0000 0000 0000 000000
2018-07-04 09:16:37,3.08,15.10,3.00,29.11,32.11,34.44,13.87,71.25,1009.29,2002.57,729.50,1181.40,1281.99,599.79,579.58,23.53,0000 0000 0000 0000 000000
2018-07-04 09:21:39,3.02,15.26,3.00,29.16,32.14,34.48,13.86,71.50,1009.29,2002.24,720.31,1173.93,1273.88,599.93,579.59,23.58,0000 0000 0000 0000 000000
2018-07-04 09:26:40,3.05,15.41,3.00,29.21,32.17,34.51,13.89,71.83,1009.31,2002.03,711.75,1166.28,1265.44,600.09,579.53,23.63,0000 0000 0000 0000 000000
2018-07-04 09:31:41,2.95,15.55,3.00,29.26,32.21,34.55,13.91,72.04,1009.57,2002.00,703.81,1158.64,1256.96,600.24,579.89,23.68,0000 0000 0000 0000 000000
2018-07-04 09:36:43,2.57,15.69,3.00,29.32,32.23,34.59,13.79,72.04,1009.72,2002.00,696.96,1151.88,1249.50,599.54,579.19,23.73,0000 0000 0000 0000 000000
2018-07-04 09:41:44,2.27,15.82,3.00,29.36,32.26,34.63,13.85,72.20,1009.70,2001.90,690.63,1146.42,1243.31,600.02,579.48,23.78,0000 0000 0000 0000 000000
2018-07-04 09:46:45,2.06,15.92,3.00,29.41,32.30,34.66,13.91,72.39,1009.78,2001.31,684.44,1141.41,1237.73,600.57,580.03,23.83,0000 0000 0000 0000 000000
2018-07-04 09:51:46,1.87,16.02,3.00,29.46,32.33,34.70,13.87,72.68,1009.79,2001.04,678.71,1137.29,1233.20,599.80,579.25,23.88,0000 0000 0000 0000 000000
2018-07-04 09:56:48,1.78,16.11,3.00,29.51,32.36,34.75,13.85,72.85,1009.81,2001.00,673.46,1133.68,1229.19,599.93,579.41,23.93,0000 0000 0000 0000 000200
2018-07-04 10:01:49,1.79,3.77,2.10,29.55,32.40,34.80,11.78,44.39,1010.08,2005.92,2818.34,2670.36,3058.28,529.60,511.46,0.00,0000 0000 0000 0000 000000
2018-07-04 10:06:50,1.81,0.04,2.00,29.59,32.44,34.82,13.45,47.03,1010.15,2007.03,3314.51,3030.23,3484.25,600.11,579.50,0.05,0000 0000 0000 0000 000000
2018-07-04 10:11:51,1.88,0.13,2.00,29.62,32.47,34.86,13.48,47.10,1010.11,2007.00,3271.84,3003.31,3448.40,599.94,579.20,0.10,0000 0000 0000 0000 000000
2018-07-04 10:16:53,1.97,0.23,2.00,29.67,32.51,34.90,13.55,47.32,1010.23,2006.92,3228.91,2975.71,3412.11,600.41,579.48,0.15,0000 0000 0000 0000 000000
2018-07-04 10:21:54,2.03,0.33,2.00,29.71,32.55,34.95,13.44,47.49,1010.27,2006.30,3186.23,2947.82,3376.09,599.86,579.04,0.20,0000 0000 0000 0000 000000
2018-07-04 10:26:55,2.08,0.43,2.00,29.76,32.59,34.99,13.40,47.50,1010.29,2006.02,3144.54,2920.07,3340.41,600.09,579.14,0.25,0000 0000 0000 0000 000000
2018-07-04 10:31:57,2.06,0.53,2.00,29.80,32.62,35.04,13.52,47.88,1010.48,2006.00,3103.95,2893.29,3306.22,600.05,579.07,0.30,0000 0000 0000 0000 000000
2018-07-04 10:36:58,2.07,0.64,2.00,29.85,32.66,35.08,13.53,47.92,1010.76,2005.92,3062.56,2866.04,3271.28,600.21,579.28,0.35,0000 0000 0000 0000 000000
2018-07-04 10:41:59,1.96,0.74,2.00,29.88,32.70,35.13,13.47,47.92,1010.77,2005.18,3022.32,2839.21,3237.33,599.97,579.15,0.40,0000 0000 0000 0000 000000
2018-07-04 10:47:01,2.07,0.85,2.00,29.92,32.74,35.17,13.44,48.07,1010.78,2005.00,2982.45,2812.50,3203.49,599.46,578.55,0.45,0000 0000 0000 0000 000000
2018-07-04 10:52:02,2.09,0.95,2.00,29.96,32.78,35.22,13.58,48.18,1010.86,2004.99,2942.91,2785.91,3170.08,600.72,579.59,0.50,0000 0000 0000 0000 000000
2018-07-04 10:57:04,2.01,1.05,2.00,29.99,32.83,35.27,13.44,48.24,1010.80,2004.54,2904.16,2759.72,3137.22,600.23,579.10,0.55,0000 0000 0000 0000 000000
2018-07-04 11:02:05,2.03,1.15,2.00,30.03,32.87,35.32,13.50,48.44,1010.85,2004.04,2866.37,2734.13,3105.13,600.00,578.91,0.60,0000 0000 0000 0000 000000
2018-07-04 11:07:06,2.01,1.26,2.00,30.05,32.91,35.36,13.51,48.48,1010.84,2004.00,2830.11,2709.47,3074.34,600.02,578.81,0.65,0000 0000 0000 0000 000000
2018-07-04 11:12:07,2.09,1.36,2.00,30.07,32.95,35.41,13.46,48.72,1010.78,2003.89,2794.32,2684.44,3043.30,600.13,578.86,0.70,0000 0000 0000 0000 000000
2018-07-04 11:17:09,1.94,1.46,2.00,30.10,32.98,35.45,13.46,48.74,1010.78,2003.18,2759.06,2659.73,3012.73,599.84,578.58,0.75,0000 0000 0000 0000 000000
2018-07-04 11:22:10,2.12,1.57,2.00,30.12,33.02,35.49,13.53,48.82,1010.78,2003.00,2723.14,2634.09,2981.60,599.86,578.48,0.80,0000 0000 0000 0000 000000
2018-07-04 11:27:11,1.90,1.66,2.00,30.15,33.06,35.53,13.51,49.00,1010.76,2002.93,2690.91,2612.00,2954.11,600.08,578.70,0.85,0000 0000 0000 0000 000000
2018-07-04 11:32:12,1.86,1.76,2.00,30.16,33.10,35.56,13.56,49.15,1010.76,2002.39,2659.34,2590.08,2927.16,600.10,578.62,0.90,0000 0000 0000 0000 000000
2018-07-04 11:37:14,1.88,1.85,2.00,30.17,33.13,35.60,13.56,49.27,1010.75,2002.02,2628.43,2568.62,2900.72,600.21,578.79,0.95,0000 0000 0000 0000 000000
2018-07-04 11:42:15,1.87,1.95,2.00,30.19,33.16,35.63,13.48,49.38,1010.75,2002.00,2598.49,2547.90,2875.14,599.80,578.36,1.00,0000 0000 0000 0000 000000
2018-07-04 11:47:16,1.86,2.04,2.00,30.20,33.20,35.65,13.61,49.58,1010.76,2001.94,2569.31,2527.42,2850.18,600.05,578.60,1.05,0000 0000 0000 0000 000000
2018-07-04 11:52:17,1.83,2.13,2.00,30.21,33.23,35.68,13.51,49.60,1010.78,2001.42,2540.50,2507.01,2825.37,599.70,578.31,1.10,0000 0000 0000 0000 000000
2018-07-04 11:57:19,1.97,2.23,2.00,30.22,33.26,35.71,13.48,49.76,1010.89,2001.07,2510.58,2486.06,2799.95,599.99,578.50,1.15,0000 0000 0000 0000 000000
2018-07-04 12:02:20,1.97,2.33,2.00,30.22,33.28,35.73,13.53,49.78,1010.99,2001.00,2481.05,2464.97,2774.51,600.09,578.71,1.20,0000 0000 0000 0000 000000
2018-07-04 12:07:21,5.74,2.52,2.00,30.23,33.31,35.75,13.58,49.97,1011.17,2000.93,2425.71,2414.12,2717.89,600.11,578.84,1.25,0000 0000 0000 0000 000000
2018-07-04 12:12:23,6.53,2.87,2.00,30.23,33.34,35.78,13.55,50.14,1011.25,2000.22,2346.26,2335.00,2631.43,600.05,578.78,1.30,0000 0000 0000 0000 000000
2018-07-04 12:17:24,2.12,3.05,2.00,30.23,33.36,35.80,13.47,50.14,1011.25,2000.01,2310.37,2304.53,2596.61,600.06,578.84,1.36,0000 0000 0000 0000 000000
2018-07-04 12:22:25,1.71,3.14,2.00,30.23,33.38,35.83,13.47,50.16,1011.33,2000.00,2287.66,2288.48,2576.96,599.88,578.61,1.41,0000 0000 0000 0000 000000
2018-07-04 12:27:27,1.68,3.22,2.03,30.24,33.40,35.85,13.54,50.31,1011.72,1999.98,2265.74,2273.06,2558.36,600.07,579.13,1.46,0000 0000 0000 0000 000000
2018-07-04 12:32:28,1.73,3.31,3.00,30.25,33.42,35.86,13.49,50.35,1011.59,1999.96,2243.88,2257.64,2539.77,599.56,578.44,1.51,0000 0000 0000 0000 000000
2018-07-04 12:37:30,1.54,3.40,3.00,30.25,33.45,35.88,13.46,50.52,1011.25,1999.50,2223.07,2242.95,2521.86,599.63,578.37,1.56,0000 0000 0000 0000 000000
2018-07-04 12:42:31,1.49,3.47,3.00,30.25,33.46,35.90,13.57,50.53,1011.24,1999.12,2203.84,2229.63,2505.49,600.04,578.73,1.61,0000 0000 0000 0000 000000
2018-07-04 12:47:32,1.53,3.55,3.00,30.25,33.48,35.92,13.58,50.67,1011.37,1999.02,2184.82,2216.31,2489.51,600.19,578.97,1.66,0000 0000 0000 0000 000000
2018-07-04 12:52:33,1.50,3.62,3.00,30.25,33.50,35.93,13.51,50.77,1011.46,1999.00,2166.38,2203.32,2473.77,600.06,578.87,1.71,0000 0000 0000 0000 000000
2018-07-04 12:57:34,1.54,3.70,2.97,30.25,33.51,35.94,13.49,50.85,1011.68,1999.00,2147.79,2190.23,2457.93,599.78,578.72,1.76,0000 0000 0000 0000 000000